Montreal Mirabel, Quebec

12:14 PM EDT on July 23, 2017 (GMT -0400)
Montreal Mirabel

Weather History for CYMX - October, 2011

Change the Weather History Date:

Saturday, October 29, 2011

  Actual Average Record
Temperature  
Mean Temperature 32 °F -  
Max Temperature 41 °F 46 °F 59 °F (2012)
Min Temperature 23 °F 31 °F 19 °F (2013)
Degree Days  
Heating Degree Days 33    
Moisture  
Dew Point 22 °F    
Average Humidity 68    
Maximum Humidity 86    
Minimum Humidity 45    
Precipitation  
Precipitation 0.00 in - - ()
Sea Level Pressure  
Sea Level Pressure 30.25 in    
Wind  
Wind Speed 2 mph ()    
Max Wind Speed 8 mph    
Max Gust Speed -    
Averages and records for this station are not official NWS values.
T = Trace of Precipitation, MM = Missing Value Source: Averaged Metar Reports

Daily Weather History Graph

Daily Weather History Graph

Search for Another Location

Airport or City:

Trip Planner

Search our weather history database for the weather conditions in past years. The results will help you decide how hot, cold, wet, or windy it might be!

Date:

Astronomy

Oct. 29, 2011 Rise Set
Actual Time 7:31 AM EDT 5:47 PM EDT
Civil Twilight 7:00 AM EDT 6:18 PM EDT
Nautical Twilight 6:25 AM EDT 6:53 PM EDT
Astronomical Twilight 5:51 AM EDT 7:27 PM EDT
Moon 11:00 AM EDT (10/29) 7:58 PM EDT (10/29)
Length of Visible Light 11h 17m
Length of Day
10h 16m
Waxing Crescent, 11% of the Moon is Illuminated
Oct 29
Waxing Crescent
Nov 2
First Quarter
Nov 10
Full
Nov 18
Last Quarter
Nov 25
New

Hourly Weather History & Observations

Time (EDT) Temp. Windchill Dew Point Humidity Pressure Visibility Wind Dir Wind Speed Gust Speed Precip Events Conditions
12:00 AM 26.6 °F - 21.2 °F 80% 30.29 in 25.0 mi Calm Calm - N/A   Clear
1:00 AM 24.8 °F - 19.4 °F 80% 30.29 in 25.0 mi Calm Calm - N/A   Clear
2:00 AM 26.6 °F - 21.2 °F 80% 30.28 in 25.0 mi Calm Calm - N/A   Clear
3:00 AM 26.6 °F - 21.2 °F 80% 30.29 in 25.0 mi Calm Calm - N/A   Clear
4:00 AM 23.0 °F - 19.4 °F 86% 30.28 in 25.0 mi SSW 2.3 mph - N/A   Clear
5:00 AM 24.8 °F - 21.2 °F 86% 30.29 in 25.0 mi Calm Calm - N/A   Partly Cloudy
6:00 AM 26.6 °F - 21.2 °F 80% 30.31 in 25.0 mi NNE 2.3 mph - N/A   Partly Cloudy
7:00 AM 23.0 °F - 19.4 °F 86% 30.32 in 45.0 mi Calm Calm - N/A   Partly Cloudy
8:00 AM 24.8 °F 20.5 °F 21.2 °F 86% 30.31 in 45.0 mi NNE 3.5 mph - N/A   Partly Cloudy
9:00 AM 28.4 °F 23.3 °F 23.0 °F 80% 30.31 in 45.0 mi NNE 4.6 mph - N/A   Mostly Cloudy
10:00 AM 33.8 °F 28.6 °F 26.6 °F 75% 30.30 in 40.0 mi NE 5.8 mph - N/A   Mostly Cloudy
11:00 AM 37.4 °F 33.8 °F 26.6 °F 65% 30.28 in 30.0 mi NE 4.6 mph - N/A   Mostly Cloudy
12:00 PM 41.0 °F 35.8 °F 23.0 °F 49% 30.31 in 40.0 mi East 8.1 mph - N/A   Mostly Cloudy
1:00 PM 41.0 °F 36.4 °F 23.0 °F 49% 30.25 in 45.0 mi East 6.9 mph - N/A   Mostly Cloudy
2:00 PM 41.0 °F 37.1 °F 21.2 °F 45% 30.24 in 45.0 mi ENE 5.8 mph - N/A   Overcast
5:00 PM 39.2 °F 37.0 °F 23.0 °F 52% 30.19 in 45.0 mi NE 3.5 mph - N/A   Overcast
6:00 PM 37.4 °F - 23.0 °F 56% 30.16 in 25.0 mi NE 2.3 mph - N/A   Overcast
7:00 PM 37.4 °F 34.9 °F 23.0 °F 56% 30.18 in 25.0 mi North 3.5 mph - N/A   Overcast
8:00 PM 35.6 °F 30.7 °F 23.0 °F 60% 30.17 in 25.0 mi North 5.8 mph - N/A   Overcast
9:00 PM 35.6 °F - 21.2 °F 56% 30.18 in 25.0 mi ENE 2.3 mph - N/A   Overcast
10:00 PM 33.8 °F - 21.2 °F 60% 30.15 in 25.0 mi NNW 2.3 mph - N/A   Overcast
11:00 PM 35.6 °F 30.7 °F 21.2 °F 56% 30.11 in 25.0 mi NNW 5.8 mph - N/A   Overcast